Content
SEND FEEDBACK

Daily
Averages
Monthly
Summary
United States of America

GARRISON, NEBRASKA


Home > North America > United States > Nebraska
Elevation: 1539 feet     Latitude: 41 06N     Longitude: 097 11W

WEATHER
 
SELECT A DAY
Number of Records: 457,758;   Date Range: 1/1/95 - 7/20/14
 
SHARE

PRINT THIS DATA

[ ← Previous Day ]
WEATHER ALMANAC - JANUARY 31, 2013
[ Next Day → ]
[ °C ]   °F
Weather ElementAverageHighLow
Temperature7.8 °F14 °F (12:35 am)1.4 °F (9:15 pm)
Dewpoint-3.4 °F3.2 °F (12:35 am)-7.6 °F (5:15 pm)
Humidity61 %73 % (1:55 am)48 % (12:35 pm)
Barometer30.19 in30.38 in (10:35 pm)29.93 in (12:35 am)
Wind Speed16.2 mph29.9 mph (11:55 am)
Wind Gust35.7 mph (11:35 am)
Weather ElementAverage
Visibility9.9 mi
Wind DirectionNW (315.9 °)

Weather ElementTotal
Precipitation---
Heating Degree Days57.3 (Base 65)
Averaged from 68 records on January 31, 2013
WEATHER CONDITIONS BREAKOUT
WIND DIRECTION BREAKOUT
WEATHER BY HOUR - JANUARY 31, 2013
[ °C ]   °F
Local TimeTemperatureDewpointHumidityBarometerVisibilityWind DirectionWind SpeedGust SpeedPrecipitationEventsConditions
12:35 AM14.0 °F3.2 °F62 %29.93 in10.0 miNW (320°)13.8 mphOvercast
12:55 AM12.2 °F3.2 °F67 %29.93 in10.0 miNNW (330°)15.0 mph18.4 mphOvercast
1:15 AM12.2 °F3.2 °F67 %29.94 in10.0 miNNW (330°)13.8 mphOvercast
1:35 AM12.2 °F3.2 °F67 %29.95 in10.0 miNNW (330°)11.5 mphMostly Cloudy
1:55 AM10.4 °F3.2 °F73 %29.95 in10.0 miNNW (330°)13.8 mphMostly Cloudy
2:15 AM10.4 °F3.2 °F73 %29.94 in10.0 miNNW (330°)15.0 mphOvercast
2:35 AM10.4 °F1.4 °F67 %29.96 in10.0 miNW (320°)15.0 mphScattered Clouds
2:55 AM10.4 °F1.4 °F67 %29.96 in10.0 miNW (320°)11.5 mphClear
3:15 AM10.4 °F1.4 °F67 %29.96 in10.0 miNW (310°)11.5 mphClear
3:35 AM8.6 °F1.4 °F73 %29.96 in10.0 miNW (320°)9.2 mphClear
3:55 AM8.6 °F1.4 °F73 %29.97 in10.0 miNW (310°)8.1 mphClear
4:15 AM8.6 °F1.4 °F73 %29.99 in10.0 miWNW (290°)6.9 mphClear
4:35 AM8.6 °F1.4 °F73 %29.99 in10.0 miWNW (290°)6.9 mphClear
4:55 AM8.6 °F1.4 °F73 %30.00 in10.0 miNW (310°)9.2 mphClear
5:15 AM8.6 °F1.4 °F73 %30.01 in10.0 miNW (310°)11.5 mphMostly Cloudy
5:35 AM8.6 °F1.4 °F73 %30.01 in10.0 miNW (310°)13.8 mph18.4 mphOvercast
5:55 AM8.6 °F1.4 °F73 %30.02 in10.0 miNW (310°)15.0 mph18.4 mphMostly Cloudy
6:15 AM8.6 °F1.4 °F73 %30.03 in10.0 miNW (310°)15.0 mph21.9 mphMostly Cloudy
6:35 AM8.6 °F1.4 °F73 %30.04 in10.0 miNW (310°)18.4 mph23.0 mphOvercast
6:55 AM8.6 °F1.4 °F73 %30.05 in10.0 miNW (310°)18.4 mph23.0 mphOvercast
7:15 AM8.6 °F-0.4 °F67 %30.06 in10.0 miNW (310°)19.6 mphOvercast
7:35 AM8.6 °F-0.4 °F67 %30.07 in10.0 miNW (320°)24.2 mph28.8 mphMostly Cloudy
7:55 AM6.8 °F-2.2 °F67 %30.08 in10.0 miNW (310°)19.6 mph24.2 mphPartly Cloudy
8:15 AM6.8 °F-2.2 °F67 %30.10 in10.0 miNW (320°)18.4 mph24.2 mphPartly Cloudy
8:35 AM6.8 °F-2.2 °F67 %30.12 in10.0 miNW (320°)23.0 mph29.9 mphPartly Cloudy
8:55 AM6.8 °F-4.0 °F61 %30.14 in10.0 miNW (310°)23.0 mphPartly Cloudy
9:15 AM6.8 °F-5.8 °F56 %30.16 in10.0 miNW (320°)26.5 mphClear
9:35 AM6.8 °F-5.8 °F56 %30.18 in10.0 miNNW (330°)26.5 mph34.5 mphScattered Clouds
9:55 AM8.6 °F-4.0 °F57 %30.19 in10.0 miNNW (330°)21.9 mph32.2 mphScattered Clouds
10:15 AM8.6 °F-5.8 °F52 %30.20 in10.0 miNNW (330°)20.7 mph28.8 mphMostly Cloudy
10:35 AM8.6 °F-4.0 °F57 %30.22 in8.0 miNW (320°)24.2 mph28.8 mphMostly Cloudy
10:55 AM8.6 °F-5.8 °F52 %30.23 in7.0 miNNW (330°)23.0 mph34.5 mphMostly Cloudy
11:15 AM8.6 °F-4.0 °F57 %30.24 in10.0 miNW (320°)26.5 mph31.1 mphMostly Cloudy
11:35 AM8.6 °F-5.8 °F52 %30.25 in10.0 miNNW (330°)26.5 mph35.7 mphMostly Cloudy
11:55 AM10.4 °F-4.0 °F52 %30.25 in10.0 miNNW (330°)29.9 mph34.5 mphPartly Cloudy
12:15 PM10.4 °F-2.2 °F57 %30.25 in10.0 miNW (320°)28.8 mph35.7 mphPartly Cloudy
12:35 PM10.4 °F-5.8 °F48 %30.26 in10.0 miNW (320°)26.5 mph34.5 mphClear
12:55 PM10.4 °F-4.0 °F52 %30.26 in10.0 miNNW (330°)24.2 mph33.4 mphClear
1:15 PM10.4 °F-5.8 °F48 %30.26 in10.0 miNNW (330°)23.0 mph33.4 mphPartly Cloudy
1:35 PM10.4 °F-5.8 °F48 %30.26 in10.0 miNNW (330°)23.0 mph32.2 mphClear
2:15 PM12.2 °F-4.0 °F48 %30.27 in10.0 miNW (310°)24.2 mph29.9 mphClear
2:35 PM10.4 °F-5.8 °F48 %30.27 in10.0 miNW (320°)21.9 mph32.2 mphClear
2:55 PM10.4 °F-5.8 °F48 %30.27 in10.0 miNW (320°)23.0 mph29.9 mphClear
3:15 PM10.4 °F-5.8 °F48 %30.28 in10.0 miNW (310°)25.3 mph33.4 mphClear
3:35 PM10.4 °F-5.8 °F48 %30.29 in10.0 miNNW (330°)24.2 mph32.2 mphClear
3:55 PM10.4 °F-5.8 °F48 %30.30 in10.0 miNW (310°)20.7 mph26.5 mphClear
4:15 PM10.4 °F-5.8 °F48 %30.31 in10.0 miNW (320°)20.7 mphClear
4:35 PM8.6 °F-5.8 °F52 %30.31 in10.0 miNNW (330°)20.7 mph25.3 mphClear
4:55 PM8.6 °F-5.8 °F52 %30.31 in10.0 miWNW (300°)17.3 mphClear
5:15 PM8.6 °F-7.6 °F48 %30.31 in10.0 miNW (310°)16.1 mphClear
5:35 PM6.8 °F-7.6 °F52 %30.32 in10.0 miNW (310°)15.0 mphClear
5:55 PM6.8 °F-7.6 °F52 %30.32 in10.0 miNW (320°)16.1 mphClear
6:15 PM6.8 °F-7.6 °F52 %30.33 in10.0 miNW (320°)15.0 mphClear
6:35 PM5.0 °F-7.6 °F56 %30.33 in10.0 miNW (310°)10.4 mphClear
7:15 PM3.2 °F-7.6 °F61 %30.34 in10.0 miNNW (340°)9.2 mphClear
7:35 PM3.2 °F-7.6 °F61 %30.33 in10.0 miNorth (350°)9.2 mphClear
7:55 PM3.2 °F-7.6 °F61 %30.34 in10.0 miNNW (330°)9.2 mphClear
8:15 PM3.2 °F-7.6 °F61 %30.34 in10.0 miNNW (330°)8.1 mphClear
8:35 PM3.2 °F-7.6 °F61 %30.35 in10.0 miNNW (330°)8.1 mphClear
8:55 PM3.2 °F-7.6 °F61 %30.36 in10.0 miNW (310°)5.8 mphClear
9:15 PM1.4 °F-7.6 °F66 %30.36 in10.0 miNNW (330°)5.8 mphClear
9:35 PM1.4 °F-7.6 °F66 %30.36 in10.0 miWNW (300°)4.6 mphClear
9:55 PM1.4 °F-7.6 °F66 %30.37 in10.0 miWest (280°)6.9 mphClear
10:15 PM1.4 °F-7.6 °F66 %30.37 in10.0 miWest (260°)4.6 mphClear
10:35 PM1.4 °F-7.6 °F66 %30.38 in10.0 miWest (260°)5.8 mphClear
10:55 PM1.4 °F-7.6 °F66 %30.37 in10.0 miWNW (290°)5.8 mphClear
11:15 PM3.2 °F-5.8 °F66 %30.37 in10.0 miWNW (290°)5.8 mphMostly Cloudy
11:35 PM3.2 °F-5.8 °F66 %30.37 in10.0 miWNW (300°)8.1 mphOvercast
Hourly data recorded from KOLU, located miles away from Garrison, Nebraska







STORIES FROM OUR PARTNERS